Location: Fauquembergues
(50.6005°N, 2.0987°E)
Time: 20:26:45
(UTC+00:00)

Cosmos 1241 Rocket - Pass Details

Date: 14 July 2020
Orbit: 935 x 1013 km, 65.8° (Epoch: 14 August)

Event Time Altitude Azimuth Distance (km) Brightness Sun altitude
Rises 01:22:10 0° 320° (NW) 3,678 7.9 -15.4°
Reaches altitude 10° 01:24:43 10° 319° (NW) 2,739 7.2 -15.3°
Maximum altitude 01:31:09 78° 235° (SW) 1,018 4.5 -14.9°
Drops below altitude 10° 01:37:40 10° 150° (SSE) 2,773 6.5 -14.5°
Sets 01:40:15 0° 149° (SSE) 3,726 7.2 -14.3°
